SCP
0 0 0 0 0 0 0 0 0 0 0 0 0 0 0 0 0 0 0 0 0 0 0 0 0 0 0 0 0 0 0 0 0 0 0 0 0 0 0 0 0 0 0
0 0 0 0 0 0 0 0 0 0 0 0 0 0 0 0 0 0 0 0 0 0 0 0 0 0 0 0 0 0 0 0 0 0 0 0 0 0 0 0 0 0 0
0 0 0 0 0 0 0 0 0 0 0 0 0 0 0 0 0 0 0 0 0 0 0 0 0 0 0 0 0 0 0 0 0 0 0 0 0 0 0 0 0 0 0
0 0 0 0 0 0 0 0 0 0 0 0 0 0 0 0 0 0 0 0 0 0 0 0 0 0 0 0 0 0 0 0 0 0 0 0 0 0 0 0 0 0 0
0 0 0 0 0 0 0 0 0 0 0 0 0 0 0 0 0 0 0 0 0 0 0 0 0 0 0 0 0 0 0 0 0 0 0 0 0 0 0 0 0 0 0
0 0 0 0 0 0 0 0 0 0 0 0 0 0 0 0 0 0 0 0 0 0 0 0 0 0 0 0 0 0 0 0 0 0 0 0 0 0 0 0 0 0 0
0 0 0 0 0 0 0 0 0 0 0 0 0 0 0 0 0 0 0 0 0 0 0 0 0 0 0 0 0 0 0 0 0 0 0 0 0 0 0 0 0 0 0
0 0 0 0 0 0 0 0 0 0 0 0 0 0 0 0 0 0 0 0 0 0 0 0 0 0 0 0 0 0 0 0 0 0 0 0 0 0 0 0 0 0 0
0 0 0 0 0 0 0 0 0 0 0 0 0 0 0 0 0 0 0 0 0 0 0 0 0 0 0 0 0 0 0 0 0 0 0 0 0 0 0 0 0 0 0
0 0 0 0 0 0 0 0 0 0 0 0 0 0 0 0 0 0 0 0 0 0 0 0 0 0 0 0 0 0 0 0 0 0 0 0 0 0 0 0 0 0 0
0 0 0 0 0 0 0 0 0 0 0 0 0 0 0 0 0 0 0 0 0 0 0 0 0 0 0 0 0 0 0 0 0 0 0 0 0 0 0 0 0 0 0
0 0 0 1 1 0 0 0 0 0 0 0 0 0 0 0 0 0 0 0 0 0 0 0 0 0 0 0 0 0 0 0 0 0 0 0 0 0 0 0 0 0 0
1 1 1 1 1 1 0 1 1 1 1 0 0 0 0 0 0 0 0 0 0 0 0 0 0 0 0 0 0 0 0 0 0 0 0 0 0 0 0 0 0 0 0
1 1 1 1 1 1 0 1 1 1 1 1 1 1 1 1 0 0 0 0 0 0 0 0 0 0 0 0 0 0 0 0 0 0 0 0 0 0 0 0 0 0 0
1 1 1 1 1 1 1 1 1 1 1 1 1 1 1 1 0 0 0 0 0 0 0 0 0 0 0 0 0 0 0 0 0 0 0 0 0 0 0 0 0 0 0
1 1 1 1 1 1 1 1 1 1 1 1 1 1 1 1 1 0 0 1 1 0 0 0 0 0 0 0 0 0 0 0 0 0 0 0 0 0 0 0 0 0 0
1 1 1 1 1 1 1 0 0 1 1 1 1 1 1 1 1 1 1 1 1 1 0 0 0 0 0 0 0 0 0 0 0 0 0 0 0 0 0 0 0 0 0
1 1 1 1 1 1 0 0 0 0 1 1 1 1 1 1 1 1 1 1 1 1 1 0 0 0 0 0 0 0 0 0 0 0 0 0 0 0 0 0 0 0 0
2 2 1 1 1 1 1 1 1 1 1 1 1 1 1 1 1 1 1 1 1 1 1 1 0 0 0 0 0 0 0 0 0 0 0 0 0 0 0 0 0 0 0
2 2 2 1 1 1 1 1 1 1 1 1 1 1 1 1 1 1 1 1 1 1 1 1 1 0 0 0 0 0 0 0 0 0 0 0 0 0 0 0 0 0 -0
2 2 2 1 1 1 1 1 1 1 1 1 1 1 1 1 1 1 1 1 1 1 1 1 1 1 0 0 0 0 0 0 0 0 0 0 0 0 0 0 0 0 0
2 2 2 1 1 1 0 0 0 1 1 1 1 1 1 1 0 0 0 0 0 1 1 1 1 1 0 0 0 0 0 0 0 0 0 0 0 0 0 0 0 0 0
2 2 1 1 1 1 0 0 0 0 1 1 1 1 1 1 0 0 0 0 0 0 0 0 0 0 0 0 0 0 0 0 0 0 0 0 0 0 0 0 0 0 0
1 1 1 1 1 1 0 0 0 0 1 1 1 1 1 1 0 0 0 0 0 0 0 0 0 0 0 0 0 0 0 0 0 0 0 0 0 0 0 0 0 0 0
1 1 1 1 1 1 0 0 0 0 1 1 1 1 1 0 0 0 0 0 0 0 0 0 0 0 0 0 0 0 0 0 0 0 0 0 0 0 0 0 0 0 0
1 1 1 1 1 1 0 0 0 0 1 1 1 1 0 0 0 0 0 0 0 0 0 0 0 0 0 0 0 0 0 0 0 0 0 0 0 0 0 0 0 0 0
Wind_Speed
1 1 1 1 1 2 3 2 2 2 2 1 1 2 1 1 2 4 5 8 8 7 7 7 6 5 5 5 5 4 3 4 4 4 3 4 3 3 2 2 3 3 3
1 1 1 1 1 1 2 2 2 2 2 2 2 2 2 2 2 3 5 6 8 8 7 6 6 5 5 5 4 4 3 4 3 4 4 4 4 4 3 2 1 1 2
1 0 1 2 1 1 2 2 2 1 2 2 2 2 2 3 2 3 4 4 5 7 7 6 6 5 5 5 5 4 3 3 4 3 3 3 3 4 3 3 2 1 1
1 0 0 1 1 2 2 2 2 1 2 2 2 2 2 3 3 3 3 3 3 4 6 7 6 5 5 5 5 5 4 4 4 3 3 3 3 3 3 4 3 2 2
1 0 0 1 1 1 1 2 2 2 2 2 2 2 2 3 2 3 3 3 4 4 4 6 6 5 4 4 4 5 5 4 3 3 3 3 3 3 3 4 4 4 3
1 0 1 1 1 2 1 1 2 2 2 2 1 2 2 2 2 2 2 2 3 4 3 4 4 3 4 4 3 3 4 4 4 3 3 3 3 3 3 4 5 4 3
1 1 1 1 1 2 2 2 2 2 2 2 2 2 1 2 2 2 2 1 2 2 2 3 3 2 2 4 3 3 4 4 4 3 3 3 3 3 3 4 5 4 4
1 1 1 1 1 1 2 1 2 1 1 1 2 2 1 1 1 2 2 2 2 2 2 3 2 2 2 2 2 3 3 4 4 4 3 3 3 3 3 3 5 5 4
1 2 2 1 1 1 2 1 1 1 1 1 1 1 1 1 1 1 1 1 2 2 2 2 2 3 3 2 2 2 3 3 3 3 3 2 2 2 2 2 3 5 5
1 2 2 1 1 1 2 1 2 0 1 1 0 1 1 2 2 1 0 1 1 1 1 1 2 2 3 2 2 3 3 3 3 3 2 2 2 2 2 2 2 3 4
1 2 2 1 1 1 1 1 1 0 0 1 0 1 1 0 1 2 1 1 0 1 1 1 2 2 2 3 3 4 4 4 4 3 2 2 2 2 2 2 1 1 2
1 1 2 1 1 1 1 1 1 1 1 1 0 0 1 1 1 1 2 2 1 0 1 1 1 2 2 3 4 5 5 5 4 4 3 3 3 3 3 2 2 2 2
1 2 1 1 1 1 1 1 1 1 1 1 1 1 1 1 1 2 2 2 1 0 1 1 1 2 3 2 3 5 6 6 5 4 4 3 3 3 2 2 2 2 2
1 2 2 1 1 1 1 1 2 2 2 1 2 1 1 1 1 1 2 2 2 1 1 1 1 2 2 3 4 5 4 5 5 4 4 4 3 3 2 2 2 3 3
1 2 2 1 1 1 1 2 1 2 2 2 2 2 1 1 1 1 2 2 2 2 1 1 1 1 2 2 4 4 4 5 5 4 4 4 3 3 3 3 3 3 3
1 1 0 0 0 1 1 2 2 2 2 2 2 2 2 1 1 1 1 1 1 1 1 1 2 3 2 3 4 4 4 6 6 6 5 4 4 4 4 3 3 3 3
1 1 1 1 1 1 1 1 2 2 2 2 2 2 1 1 1 1 1 1 1 1 2 1 1 2 3 3 3 3 4 4 4 7 7 6 5 5 5 4 3 3 3
2 2 1 1 1 1 1 2 2 2 2 2 2 2 2 1 1 2 1 1 1 1 2 2 2 3 3 3 4 4 4 3 4 6 8 8 7 6 6 5 4 3 3
2 2 2 1 1 1 1 2 2 1 1 1 1 2 2 1 2 2 2 2 1 2 2 2 2 2 2 3 3 3 3 2 4 6 7 8 8 8 7 6 6 5 4
2 2 2 1 1 1 1 1 1 1 1 1 1 1 1 2 2 2 2 2 2 2 2 2 2 2 2 2 2 2 2 2 2 3 4 6 7 9 8 8 7 7 6
2 2 2 1 2 2 1 0 1 2 1 1 1 2 2 1 1 1 2 1 2 2 2 2 2 2 2 2 3 3 3 2 2 2 3 4 4 4 5 8 9 9 8
2 2 2 2 2 2 1 1 1 2 2 2 2 2 2 2 0 0 0 1 2 3 2 2 2 2 3 3 3 3 2 2 2 2 3 4 4 5 5 5 9 11 10
2 2 2 2 1 0 1 1 1 2 3 3 3 2 3 2 1 0 1 1 1 2 3 2 3 3 3 3 3 4 3 3 3 3 2 3 3 4 4 6 11 12 11
2 2 2 2 2 1 2 2 1 3 3 3 3 3 2 1 1 1 2 2 2 2 3 3 3 3 3 3 4 4 4 3 3 3 3 4 3 3 3 4 10 12 12
1 2 2 2 1 1 2 2 2 2 2 3 3 2 1 1 0 1 2 2 2 3 3 3 3 4 4 5 4 2 3 3 4 4 3 3 3 3 3 3 6 11 12
1 2 1 1 2 2 3 3 3 2 2 2 2 1 1 2 2 2 2 2 4 3 3 3 3 3 4 5 6 5 4 4 4 3 3 3 3 2 2 3 3 5 7
Wind_Direction
110 112 101 125 181 168 156 163 168 159 166 157 137 119 91 72 96 110 122 132 131 135 144 154 162 165 170 174 177 177 184 193 194 197 205 207 201 196 200 200 217 222 210
83 99 133 179 180 166 154 157 162 159 160 151 145 142 139 108 92 109 129 135 134 136 141 149 153 158 163 167 178 178 186 193 190 186 193 204 205 204 206 193 199 215 207
110 148 159 154 165 160 147 135 136 147 153 149 149 149 140 141 137 125 131 137 144 144 145 146 152 159 165 168 180 186 188 181 176 174 185 190 195 199 193 188 196 184 172
99 129 133 139 164 174 157 155 152 149 139 142 150 157 147 141 153 147 140 146 147 148 149 149 150 157 167 173 181 186 189 186 183 185 192 188 192 195 195 196 196 191 194
106 92 92 101 171 148 131 151 133 146 143 147 152 151 141 136 159 148 138 144 145 140 147 151 156 160 170 181 191 194 194 194 191 186 191 193 194 191 192 197 196 192 197
95 13 119 115 141 117 114 121 128 146 152 158 137 110 124 144 148 140 151 146 143 151 153 146 158 166 168 175 187 200 200 194 187 190 196 195 201 193 195 200 196 198 205
84 49 47 83 111 129 144 145 129 148 158 145 120 104 112 132 138 134 149 129 121 126 121 123 148 164 153 165 187 200 203 194 189 193 198 195 196 191 192 198 203 202 201
87 87 63 69 96 114 116 118 125 135 158 149 143 143 120 98 66 145 151 156 148 135 123 134 137 134 134 147 148 179 201 203 200 198 204 201 197 195 200 206 205 200 190
99 64 74 53 76 94 109 133 123 138 150 158 154 140 136 129 113 92 108 120 121 119 135 135 130 135 133 129 143 157 179 193 196 198 204 194 187 189 204 206 197 191 191
115 102 96 75 81 83 110 159 114 108 131 168 124 60 85 126 145 141 70 85 119 122 138 134 117 111 126 129 121 108 140 163 172 184 187 178 160 138 136 154 184 187 183
142 113 109 111 114 101 104 79 82 235 227 233 195 135 119 118 137 153 160 167 125 136 133 132 113 106 108 118 119 105 117 132 139 140 139 132 124 130 136 139 157 151 158
153 139 140 141 142 136 161 167 187 215 237 273 289 168 155 155 156 150 152 171 160 143 112 108 118 127 121 116 120 121 130 130 128 126 122 115 114 119 123 124 119 115 110
157 160 157 168 174 171 202 187 207 217 219 229 232 228 213 204 151 152 152 165 163 182 145 158 174 146 134 131 128 124 124 131 135 131 123 118 115 114 127 135 124 117 107
163 137 146 181 189 192 207 196 221 207 195 207 231 230 227 216 209 178 173 168 181 203 184 188 188 150 133 142 137 137 128 135 138 140 138 132 128 123 132 130 113 106 93
139 129 163 170 182 204 220 220 223 228 201 210 218 216 220 235 218 211 198 193 189 199 216 195 173 150 145 135 155 146 145 152 157 155 156 150 144 140 139 127 118 109 100
81 122 172 174 197 255 243 234 236 226 213 213 210 214 223 229 223 242 236 220 200 190 208 193 184 180 182 168 167 156 156 159 170 174 173 170 163 155 145 139 132 128 124
154 167 210 229 237 253 257 252 243 239 234 225 220 211 224 235 259 265 270 232 192 187 186 192 160 163 171 160 171 175 176 173 173 181 183 181 174 165 159 158 158 151 149
180 183 192 222 248 260 266 255 248 235 231 230 234 228 228 239 258 282 271 258 227 210 187 187 175 177 184 176 186 202 193 179 177 179 180 177 176 175 173 173 173 174 181
182 184 182 191 235 258 266 272 268 243 236 235 242 242 244 242 247 253 257 256 249 237 198 190 197 184 186 189 187 214 205 197 195 178 182 183 186 185 184 184 184 189 198
179 172 172 192 230 238 235 259 283 266 258 262 259 258 253 246 254 250 243 238 242 233 210 200 202 191 184 188 180 209 221 215 214 192 191 185 188 191 194 193 194 195 200
185 173 188 208 237 234 238 243 272 264 268 277 272 268 270 263 291 277 260 263 252 240 223 206 220 197 194 192 209 223 229 222 225 200 193 200 188 195 199 202 203 202 201
191 186 198 211 241 265 56 58 346 307 278 260 260 261 251 220 197 213 271 306 268 249 246 229 232 222 213 209 212 220 223 222 243 212 198 220 197 200 200 201 200 200 202
193 203 211 219 214 187 158 152 198 270 277 269 263 255 262 264 228 241 268 266 299 275 239 232 238 244 223 213 212 221 222 228 240 227 208 236 212 211 207 203 192 197 202
208 217 219 227 226 192 150 159 217 244 267 265 260 258 254 252 282 249 263 256 261 274 252 241 236 243 242 219 217 222 222 230 238 235 212 235 227 224 218 201 195 197 202
224 230 231 233 235 134 153 184 217 247 253 264 265 272 261 168 219 248 254 258 261 273 279 279 253 233 228 227 222 228 233 229 241 236 211 220 229 226 218 207 200 201 205
228 245 241 229 215 191 191 192 205 256 274 282 265 216 211 205 192 196 237 262 269 269 273 271 262 240 226 223 219 214 223 234 243 243 215 212 225 215 231 213 199 200 207